"Pseudo-MPEC" for P11dgvo

Created 2021 Feb 28 14:07:06 UT using Find_Orb

Click here for an explanation of pseudo-MPECs

 
 Astrometry: 
     P11dgvo  C2021 02 12J!(P'5AstrometryObQlS-R2-redacted;T?aIL)[clickO2]a2_F51
     P11dgvo  C2021 02 1214A;o]QDy\6,DCQQ7ldv5ml5PP8i0WvGbtGyeSC.LN_c@9hereMOF51
     P11dgvo  C2021 02 12Ac!for9I9(etlvJ9_D`^/n[=@/V])p1Fy,/q-@^+texplanationF51

Station data:
(F51) Pan-STARRS 1, Haleakala  (N20.707235 W156.255910)  US/Hawaii.
   Observers N. Primak, A. Schultz, S. Watters, J. Thiel, T. Goggia. Measurer
   PS1 Science Consortium. 1.8-m Ritchey-Chrétien + CCD.

Orbital elements:  P11dgvo
   Perihelion 2020 Jun 29.559965 +/- 239.347 TT = 13:26:21 (JD 2459030.059965)
Epoch 2021 Feb 13.0 TT = JDT 2459258.5   Earth MOID: 0.6028   Ma: 0.0314
M  98.14403169 +/- 86.490345        (J2000 ecliptic)          AutoNEOCP
n   0.42962710 +/- 0.258717         Peri.  291.82048 +/- 81.882896
a   1.73943524 +/- 0.698301         Node   104.27260 +/- 50.082802
e   0.1328231 +/- 0.265525          Incl.   20.79540 +/- 29.847334
P   2.29/837.92d           H 21.1   G  0.15   U 11.8  SR
q 1.50839794 +/- 0.823103    Q 1.97047253 +/- 31.478
From 3 observations 2021 Feb. 12 (41.9 min); mean residual 0".01
Residuals in arcseconds: 
210212 F51  .00   .02-    210212 F51  .01-  .03+    210212 F51  .00   .01-    

Ephemerides (geocentric):
Date (UTC) HH   RA              Dec         delta   r     elong  mag " sig PA
---- -- -- --  -------------   -----------  ------ ------ -----  --- ---- ---
2021 02 28 14  10 43 29.941   +43 43 08.26  .92810 1.8256 144.1 23.2  29d 148
2021 02 28 15  10 43 26.590   +43 43 35.70  .92829 1.8257 144.1 23.2  29d 148
2021 02 28 16  10 43 23.240   +43 44 03.06  .92848 1.8257 144.1 23.2  29d 148
2021 02 28 17  10 43 19.891   +43 44 30.35  .92866 1.8258 144.1 23.2  29d 148
2021 02 28 18  10 43 16.542   +43 44 57.56  .92885 1.8259 144.0 23.2  29d 148
2021 02 28 19  10 43 13.193   +43 45 24.70  .92904 1.8259 144.0 23.2  29d 148
2021 02 28 20  10 43 09.846   +43 45 51.77  .92923 1.8260 144.0 23.2  29d 148
2021 02 28 21  10 43 06.499   +43 46 18.76  .92942 1.8260 144.0 23.2  29d 148
2021 02 28 22  10 43 03.152   +43 46 45.68  .92961 1.8261 143.9 23.2  29d 148
2021 02 28 23  10 42 59.807   +43 47 12.52  .92980 1.8262 143.9 23.2  29d 148
2021 03 01 00  10 42 56.461   +43 47 39.29  .92999 1.8262 143.9 23.2  29d 148
2021 03 01 01  10 42 53.117   +43 48 05.99  .93018 1.8263 143.9 23.2  29d 148
2021 03 01 02  10 42 49.773   +43 48 32.61  .93038 1.8264 143.8 23.2  29d 148
2021 03 01 03  10 42 46.431   +43 48 59.15  .93057 1.8264 143.8 23.2  29d 148
2021 03 01 04  10 42 43.088   +43 49 25.63  .93076 1.8265 143.8 23.2  29d 148
2021 03 01 05  10 42 39.747   +43 49 52.02  .93095 1.8266 143.8 23.2  29d 148
2021 03 01 06  10 42 36.406   +43 50 18.35  .93114 1.8266 143.7 23.2  29d 148
2021 03 01 07  10 42 33.066   +43 50 44.60  .93134 1.8267 143.7 23.2  30d 149
2021 03 01 08  10 42 29.727   +43 51 10.78  .93153 1.8267 143.7 23.2  30d 149
2021 03 01 09  10 42 26.388   +43 51 36.88  .93172 1.8268 143.7 23.2  30d 149
2021 03 01 10  10 42 23.051   +43 52 02.91  .93192 1.8269 143.6 23.2  30d 149
2021 03 01 11  10 42 19.714   +43 52 28.86  .93211 1.8269 143.6 23.2  30d 149
2021 03 01 12  10 42 16.378   +43 52 54.74  .93231 1.8270 143.6 23.2  30d 149
2021 03 01 13  10 42 13.043   +43 53 20.55  .93250 1.8271 143.6 23.2  30d 149
2021 03 01 14  10 42 09.708   +43 53 46.28  .93270 1.8271 143.5 23.2  30d 149
2021 03 01 15  10 42 06.375   +43 54 11.94  .93289 1.8272 143.5 23.2  30d 149
2021 03 01 16  10 42 03.042   +43 54 37.52  .93309 1.8273 143.5 23.2  30d 149
2021 03 01 17  10 41 59.711   +43 55 03.03  .93329 1.8273 143.5 23.2  30d 149
2021 03 01 18  10 41 56.380   +43 55 28.46  .93348 1.8274 143.4 23.2  30d 149
2021 03 01 19  10 41 53.050   +43 55 53.82  .93368 1.8274 143.4 23.2  30d 149
2021 03 01 20  10 41 49.721   +43 56 19.11  .93388 1.8275 143.4 23.2  30d 149
2021 03 01 21  10 41 46.393   +43 56 44.32  .93407 1.8276 143.4 23.2  30d 149
2021 03 01 22  10 41 43.065   +43 57 09.46  .93427 1.8276 143.3 23.2  30d 149
2021 03 01 23  10 41 39.739   +43 57 34.53  .93447 1.8277 143.3 23.2  30d 149
2021 03 02 00  10 41 36.414   +43 57 59.52  .93467 1.8278 143.3 23.2  30d 149
2021 03 02 01  10 41 33.089   +43 58 24.43  .93487 1.8278 143.3 23.2  30d 149
2021 03 02 02  10 41 29.766   +43 58 49.28  .93507 1.8279 143.2 23.2  30d 149
2021 03 02 03  10 41 26.444   +43 59 14.05  .93526 1.8280 143.2 23.2  30d 149
2021 03 02 04  10 41 23.122   +43 59 38.74  .93546 1.8280 143.2 23.2  30d 149
2021 03 02 05  10 41 19.802   +44 00 03.36  .93566 1.8281 143.2 23.2  30d 149
2021 03 02 06  10 41 16.483   +44 00 27.91  .93586 1.8281 143.1 23.2  30d 149
2021 03 02 07  10 41 13.164   +44 00 52.38  .93607 1.8282 143.1 23.2  30d 149
2021 03 02 08  10 41 09.847   +44 01 16.78  .93627 1.8283 143.1 23.2  30d 149
2021 03 02 09  10 41 06.531   +44 01 41.10  .93647 1.8283 143.1 23.2  30d 149
2021 03 02 10  10 41 03.216   +44 02 05.35  .93667 1.8284 143.0 23.2  30d 149
2021 03 02 11  10 40 59.902   +44 02 29.53  .93687 1.8285 143.0 23.2  30d 149
2021 03 02 12  10 40 56.589   +44 02 53.63  .93707 1.8285 143.0 23.2  30d 149
2021 03 02 13  10 40 53.277   +44 03 17.66  .93728 1.8286 143.0 23.2  30d 149